Weather History for Lancaster, PA

Change the Weather History Date:

Sunday, February 10, 2013

  Actual Average Record
Temperature  
Mean Temperature 28 °F -  
Max Temperature 39 °F 40 °F 60 °F (2001)
Min Temperature 18 °F 18 °F -3 °F (1978)
Degree Days  
Heating Degree Days 36    
Moisture  
Dew Point 13 °F    
Average Humidity 53    
Maximum Humidity 71    
Minimum Humidity 34    
Precipitation  
Precipitation 0.00 in - - ()
Sea Level Pressure  
Sea Level Pressure 30.39 in    
Wind  
Wind Speed 3 mph (SE)    
Max Wind Speed 10 mph    
Max Gust Speed -    
Visibility 10 miles    
Events      
Averages and records for this station are not official NWS values.
T = Trace of Precipitation, MM = Missing Value Source: NWS Daily Summary

Daily Weather History Graph

Daily Weather History Graph

Search for Another Location

Airport:

Trip Planner

Search our weather history database for the weather conditions in past years. The results will help you decide how hot, cold, wet, or windy it might be!

Date:

Astronomy

Feb. 10, 2013 Rise Set
Actual Time 7:04 AM EST 5:35 PM EST
Civil Twilight 6:36 AM EST 6:03 PM EST
Nautical Twilight 6:04 AM EST 6:35 PM EST
Astronomical Twilight 5:32 AM EST 7:06 PM EST
Moon 6:52 AM EST (2/10) 6:23 PM EST (2/10)
Length of Visible Light 11h 27m
Length of Day
10h 31m
New Moon, 0% of the Moon is Illuminated
Feb 10
New Moon
Feb 17
First Quarter
Feb 25
Full
Mar 4
Last Quarter
Mar 11
New

Hourly Weather History & Observations

Time (EST) Temp. Windchill Dew Point Humidity Pressure Visibility Wind Dir Wind Speed Gust Speed Precip Events Conditions
12:53 AM 25.0 °F 20.7 °F 10.9 °F 55% 30.40 in 10.0 mi North 3.5 mph - N/A   Clear
1:53 AM 21.9 °F - 10.9 °F 63% 30.42 in 10.0 mi Calm Calm - N/A   Clear
2:53 AM 19.9 °F - 12.0 °F 71% 30.43 in 10.0 mi Calm Calm - N/A   Clear
3:53 AM 19.9 °F - 10.9 °F 68% 30.42 in 10.0 mi Calm Calm - N/A   Clear
4:53 AM 18.0 °F 12.7 °F 9.0 °F 68% 30.42 in 10.0 mi North 3.5 mph - N/A   Clear
5:53 AM 18.0 °F - 9.0 °F 68% 30.43 in 10.0 mi Calm Calm - N/A   Clear
6:53 AM 18.0 °F - 9.0 °F 68% 30.45 in 10.0 mi Calm Calm - N/A   Clear
8:53 AM 23.0 °F - 12.9 °F 65% 30.49 in 10.0 mi Calm Calm - N/A   Clear
9:53 AM 25.0 °F 20.7 °F 14.0 °F 63% 30.49 in 10.0 mi ESE 3.5 mph - N/A   Clear
10:53 AM 28.0 °F 22.8 °F 14.0 °F 56% 30.47 in 10.0 mi ESE 4.6 mph - N/A   Clear
11:53 AM 30.0 °F - 12.0 °F 47% 30.44 in 10.0 mi Calm Calm - N/A   Clear
12:53 PM 35.1 °F 32.2 °F 10.0 °F 35% 30.42 in 10.0 mi Variable 3.5 mph - N/A   Clear
1:53 PM 37.0 °F 32.4 °F 12.0 °F 36% 30.39 in 10.0 mi East 5.8 mph - N/A   Clear
2:53 PM 39.0 °F 33.4 °F 12.9 °F 34% 30.38 in 10.0 mi SE 8.1 mph - N/A   Clear
3:53 PM 39.0 °F 32.8 °F 15.1 °F 38% 30.34 in 10.0 mi SE 9.2 mph - N/A   Clear
4:53 PM 37.9 °F 31.5 °F 12.0 °F 35% 30.34 in 10.0 mi SSE 9.2 mph - N/A   Clear
5:53 PM 35.1 °F 29.3 °F 14.0 °F 42% 30.35 in 10.0 mi SSE 6.9 mph - N/A   Clear
6:53 PM 35.1 °F 31.0 °F 15.1 °F 44% 30.33 in 10.0 mi SSE 4.6 mph - N/A   Clear
7:53 PM 35.1 °F 30.1 °F 15.1 °F 44% 30.34 in 10.0 mi SSE 5.8 mph - N/A   Clear
8:53 PM 35.1 °F 27.9 °F 16.0 °F 46% 30.33 in 10.0 mi SSE 9.2 mph - N/A   Clear
9:53 PM 34.0 °F 26.0 °F 18.0 °F 52% 30.29 in 10.0 mi SE 10.4 mph - N/A   Clear
10:53 PM 34.0 °F 27.2 °F 19.0 °F 54% 30.30 in 10.0 mi SSE 8.1 mph - N/A   Clear
11:53 PM 33.1 °F 25.5 °F 21.9 °F 64% 30.27 in 10.0 mi SE 9.2 mph - N/A   Scattered Clouds